North Newton, KS

6:29 AM CST on February 19, 2017 (GMT -0600)
Newton City County

Weather History for KEWK - March, 2013

Change the Weather History Date:

Sunday, March 31, 2013

  Actual Average Record
Temperature  
Mean Temperature 52 °F -  
Max Temperature 62 °F 58 °F 80 °F (2015)
Min Temperature 41 °F 38 °F 32 °F (2004)
Degree Days  
Heating Degree Days 14    
Growing Degree Days 2 (Base 50)    
Moisture  
Dew Point 39 °F    
Average Humidity 63    
Maximum Humidity 87    
Minimum Humidity 37    
Precipitation  
Precipitation 0.05 in - - ()
Sea Level Pressure  
Sea Level Pressure 30.02 in    
Wind  
Wind Speed 10 mph (NNW)    
Max Wind Speed 24 mph    
Max Gust Speed 31 mph    
Visibility 10 miles    
Events      
Averages and records for this station are not official NWS values.
T = Trace of Precipitation, MM = Missing Value Source: NWS Daily Summary

Daily Weather History Graph

Daily Weather History Graph

Search for Another Location

Airport or City:

Trip Planner

Search our weather history database for the weather conditions in past years. The results will help you decide how hot, cold, wet, or windy it might be!

Date:

Astronomy

Mar. 31, 2013 Rise Set
Actual Time 7:15 AM CDT 7:51 PM CDT
Civil Twilight 6:48 AM CDT 8:18 PM CDT
Nautical Twilight 6:17 AM CDT 8:49 PM CDT
Astronomical Twilight 5:45 AM CDT 9:21 PM CDT
Moon No Moon Rise 10:08 AM CDT (3/31)
Length of Visible Light 13h 29m
Length of Day
12h 36m
Waning Gibbous, 77% of the Moon is Illuminated
Mar 31
Waning Gibbous
Apr 2
Last Quarter
Apr 10
New
Apr 18
First Quarter
Apr 25
Full

Hourly Weather History & Observations

Time (CDT) Temp. Windchill Dew Point Humidity Pressure Visibility Wind Dir Wind Speed Gust Speed Precip Events Conditions
12:15 AM 51.8 °F - 46.4 °F 82% 29.98 in 10.0 mi North 9.2 mph - N/A   Clear
12:35 AM 53.6 °F - 46.4 °F 77% 29.99 in 10.0 mi NNE 12.7 mph - N/A   Mostly Cloudy
12:55 AM 53.6 °F - 44.6 °F 72% 30.00 in 10.0 mi NNE 11.5 mph - N/A   Mostly Cloudy
1:15 AM 53.6 °F - 42.8 °F 67% 30.03 in 10.0 mi NNW 16.1 mph - N/A   Mostly Cloudy
1:35 AM 53.6 °F - 42.8 °F 67% 30.05 in 10.0 mi NNW 18.4 mph 27.6 mph N/A   Overcast
1:55 AM 51.8 °F - 41.0 °F 67% 30.07 in 10.0 mi North 24.2 mph 31.1 mph N/A   Overcast
2:15 AM 48.2 °F - 42.8 °F 82% 30.07 in 10.0 mi North 17.3 mph 24.2 mph 0.01 in   Overcast
2:35 AM 48.2 °F - 42.8 °F 82% 30.05 in 7.0 mi NNE 10.4 mph - 0.04 in   Mostly Cloudy
2:55 AM 48.2 °F - 42.8 °F 82% 30.05 in 10.0 mi North 11.5 mph - 0.05 in   Mostly Cloudy
3:15 AM 48.2 °F - 42.8 °F 82% 30.04 in 10.0 mi NNE 8.1 mph - N/A   Mostly Cloudy
3:35 AM 48.2 °F - 42.8 °F 82% 30.04 in 10.0 mi North 6.9 mph - N/A   Scattered Clouds
3:55 AM 48.2 °F - 42.8 °F 82% 30.04 in 10.0 mi NNW 4.6 mph - N/A   Overcast
4:15 AM 46.4 °F 42.9 °F 42.8 °F 87% 30.04 in 10.0 mi NNW 6.9 mph - N/A   Scattered Clouds
4:35 AM 46.4 °F 43.5 °F 41.0 °F 81% 30.03 in 10.0 mi NW 5.8 mph - N/A   Clear
4:55 AM 46.4 °F 44.3 °F 41.0 °F 81% 30.03 in 10.0 mi WNW 4.6 mph - N/A   Clear
5:15 AM 44.6 °F 42.2 °F 39.2 °F 81% 30.03 in 10.0 mi WNW 4.6 mph - N/A   Clear
5:35 AM 44.6 °F 42.2 °F 39.2 °F 81% 30.03 in 7.0 mi NW 4.6 mph - N/A   Clear
5:55 AM 44.6 °F 40.7 °F 39.2 °F 81% 30.04 in 8.0 mi NW 6.9 mph - N/A   Clear
6:15 AM 44.6 °F 40.7 °F 39.2 °F 81% 30.03 in 10.0 mi NW 6.9 mph - N/A   Clear
6:35 AM 42.8 °F 40.1 °F 39.2 °F 87% 30.04 in 10.0 mi WNW 4.6 mph - N/A   Clear
6:55 AM 41.0 °F 37.1 °F 37.4 °F 87% 30.04 in 0.5 mi West 5.8 mph - N/A   Unknown
7:15 AM 42.8 °F 39.3 °F 37.4 °F 81% 30.04 in 10.0 mi West 5.8 mph - N/A   Clear
7:35 AM 42.8 °F 39.3 °F 39.2 °F 87% 30.04 in 10.0 mi NW 5.8 mph - N/A   Clear
7:55 AM 42.8 °F 38.6 °F 39.2 °F 87% 30.04 in 10.0 mi NNW 6.9 mph - N/A   Clear
8:15 AM 44.6 °F 40.2 °F 39.2 °F 81% 30.05 in 10.0 mi NNW 8.1 mph - N/A   Clear
8:35 AM 44.6 °F 38.8 °F 41.0 °F 87% 30.05 in 10.0 mi NNW 11.5 mph - N/A   Clear
8:55 AM 46.4 °F 40.1 °F 42.8 °F 87% 30.05 in 10.0 mi NNW 15.0 mph - N/A   Clear
9:15 AM 48.2 °F - 42.8 °F 82% 30.05 in 10.0 mi NW 13.8 mph - N/A   Clear
9:35 AM 48.2 °F - 42.8 °F 82% 30.05 in 10.0 mi NW 12.7 mph - N/A   Clear
9:55 AM 50.0 °F - 42.8 °F 76% 30.05 in 10.0 mi NNW 9.2 mph - N/A   Clear
10:15 AM 51.8 °F - 42.8 °F 71% 30.06 in 10.0 mi NNW 10.4 mph - N/A   Clear
10:35 AM 53.6 °F - 42.8 °F 67% 30.06 in 10.0 mi NW 9.2 mph - N/A   Clear
10:55 AM 53.6 °F - 42.8 °F 67% 30.06 in 10.0 mi NW 11.5 mph - N/A   Clear
11:15 AM 55.4 °F - 42.8 °F 63% 30.06 in 10.0 mi NNW 10.4 mph - N/A   Clear
11:35 AM 55.4 °F - 44.6 °F 67% 30.06 in 10.0 mi NNW 11.5 mph - N/A   Clear
11:55 AM 55.4 °F - 44.6 °F 67% 30.06 in 10.0 mi NNW 13.8 mph - N/A   Clear
12:15 PM 57.2 °F - 42.8 °F 59% 30.06 in 10.0 mi NNW 9.2 mph - N/A   Clear
12:35 PM 57.2 °F - 42.8 °F 59% 30.06 in 10.0 mi NNW 11.5 mph 19.6 mph N/A   Clear
12:55 PM 59.0 °F - 42.8 °F 55% 30.06 in 10.0 mi NW 8.1 mph - N/A   Clear
1:15 PM 59.0 °F - 39.2 °F 48% 30.05 in 10.0 mi WNW 6.9 mph - N/A   Clear
1:35 PM 60.8 °F - 39.2 °F 45% 30.05 in 10.0 mi NNW 11.5 mph 16.1 mph N/A   Clear
1:55 PM 60.8 °F - 37.4 °F 42% 30.05 in 10.0 mi NNW 9.2 mph - N/A   Clear
2:15 PM 62.6 °F - 39.2 °F 42% 30.05 in 10.0 mi NW 13.8 mph 19.6 mph N/A   Clear
2:35 PM 62.6 °F - 39.2 °F 42% 30.04 in 10.0 mi NNW 12.7 mph 18.4 mph N/A   Clear
2:55 PM 62.6 °F - 37.4 °F 39% 30.04 in 10.0 mi NW 11.5 mph 20.7 mph N/A   Clear
3:15 PM 62.6 °F - 37.4 °F 39% 30.03 in 10.0 mi NNW 9.2 mph - N/A   Partly Cloudy
3:35 PM 62.6 °F - 37.4 °F 39% 30.02 in 10.0 mi NNW 12.7 mph 20.7 mph N/A   Partly Cloudy
3:55 PM 62.6 °F - 37.4 °F 39% 30.02 in 10.0 mi NNW 9.2 mph 17.3 mph N/A   Clear
4:15 PM 62.6 °F - 37.4 °F 39% 30.01 in 10.0 mi NNW 9.2 mph - N/A   Clear
4:35 PM 62.6 °F - 37.4 °F 39% 30.00 in 10.0 mi WNW 5.8 mph 17.3 mph N/A   Clear
4:55 PM 62.6 °F - 37.4 °F 39% 29.99 in 10.0 mi NW 13.8 mph - N/A   Clear
5:15 PM 62.6 °F - 37.4 °F 39% 29.99 in 10.0 mi Calm Calm - N/A   Clear
5:35 PM 62.6 °F - 35.6 °F 37% 29.99 in 10.0 mi North 8.1 mph - N/A   Clear
5:55 PM 62.6 °F - 35.6 °F 37% 29.98 in 10.0 mi NNW 5.8 mph - N/A   Clear
6:15 PM 62.6 °F - 35.6 °F 37% 29.98 in 10.0 mi NNW 6.9 mph - N/A   Clear
6:35 PM 60.8 °F - 35.6 °F 39% 29.98 in 10.0 mi North 8.1 mph - N/A   Clear
7:15 PM 57.2 °F - 37.4 °F 48% 29.98 in 10.0 mi North 4.6 mph - N/A   Clear
7:35 PM 55.4 °F - 37.4 °F 51% 29.99 in 10.0 mi North 6.9 mph - N/A   Clear
7:55 PM 55.4 °F - 35.6 °F 47% 29.99 in 10.0 mi NNE 4.6 mph - N/A   Clear
8:15 PM 55.4 °F - 35.6 °F 47% 29.99 in 10.0 mi North 5.8 mph - N/A   Clear
8:35 PM 55.4 °F - 33.8 °F 44% 30.00 in 10.0 mi NNE 4.6 mph - N/A   Clear
9:15 PM 53.6 °F - 33.8 °F 47% 30.01 in 10.0 mi East 4.6 mph - N/A   Clear
9:35 PM 48.2 °F - 32.0 °F 54% 29.99 in 10.0 mi SE 8.1 mph - N/A   Clear
9:55 PM 50.0 °F - 33.8 °F 54% 29.99 in 10.0 mi SSE 8.1 mph - N/A   Clear
10:15 PM 48.2 °F - 33.8 °F 58% 29.98 in 10.0 mi SSE 6.9 mph - N/A   Clear
10:35 PM 46.4 °F 42.4 °F 33.8 °F 62% 29.98 in 10.0 mi SSE 8.1 mph - N/A   Clear
10:55 PM 48.2 °F - 33.8 °F 58% 29.98 in 10.0 mi South 8.1 mph - N/A   Clear
11:15 PM 48.2 °F - 33.8 °F 58% 29.97 in 10.0 mi South 9.2 mph - N/A   Clear
11:35 PM 48.2 °F - 33.8 °F 58% 29.97 in 10.0 mi South 9.2 mph - N/A   Clear
11:55 PM 48.2 °F - 33.8 °F 58% 29.97 in 10.0 mi South 8.1 mph - N/A   Clear